AirNav   Air Wisconsin pilot careers
 
 397 users online  

KBNG Banning Municipal Airport
Banning, California, USA

GOING TO BANNING?


FAA INFORMATION EFFECTIVE 19 JULY 2018

Location

FAA Identifier: BNG
Lat/Long: 33-55-21.2000N / 116-51-03.5000W
33-55.353333N / 116-51.058333W
33.9225556 / -116.8509722
(estimated)
Elevation: 2222.4 ft. / 677.4 m (surveyed)
Variation: 14E (1985)
From city: 1 mile SE of BANNING, CA
Time zone: UTC -7 (UTC -8 during Standard Time)
Zip code: 92220

Airport Operations

Airport use: Open to the public
Activation date: 04/1940
Control tower: no
ARTCC: LOS ANGELES CENTER
FSS: RIVERSIDE FLIGHT SERVICE STATION
NOTAMs facility: RAL (NOTAM-D service available)
Attendance: TUES-FRI 0900-1530
FOR ARPT ATTENDANT CALL (951) 922-3320.
Wind indicator: lighted
Segmented circle: yes
Lights: ACTVT MIRL RWY 08/26 - CTAF.
Beacon: white-green (lighted land airport)
Operates sunset to sunrise.

Airport Communications

CTAF/UNICOM: 122.8
WX AWOS-3: 134.625 (951-922-4674)
WX AWOS-3 at HMT (14 nm SW): 118.375 (951-925-6886)
WX ASOS at PSP (18 nm E): PHONE 760-322-7597

Nearby radio navigation aids

VOR radial/distance  VOR name  Freq  Var
HDFr048/(18.8)HOMELAND VOR113.4014E
PSPr266/21.2PALM SPRINGS VORTAC115.5013E
RALr080/(29.9)RIVERSIDE VOR112.4014E
PDZr075/33.8PARADISE VORTAC112.2015E
TRMr284/38.7THERMAL VORTAC116.2013E

Airport Services

Fuel available: 100LL
FUEL AVBL WITH 24 HR SELF SVC CREDIT CARD. FUEL APN NOT LEVEL AND ACFT MAY NOT FILL COMPLETELY.
Parking: tiedowns
Airframe service: NONE
Powerplant service: NONE
Bottled oxygen: NONE
Bulk oxygen: NONE

Runway Information

Runway 8/26

Dimensions: 4955 x 100 ft. / 1510 x 30 m
Surface: asphalt, in fair condition
Weight bearing capacity: 
Single wheel: 12.5
Runway edge lights: medium intensity
Gradient: WEST
RUNWAY 8  RUNWAY 26
Latitude: 33-55.356430N33-55.349927N
Longitude: 116-51.548577W116-50.568532W
Elevation: 2222.4 ft.2103.8 ft.
Gradient: 2.4%2.4% UP
Traffic pattern: leftright
Markings: basic, in fair conditionbasic, in fair condition
Visual slope indicator: 2-light PAPI on left (3.50 degrees glide path)
Touchdown point: yes, no lightsyes, no lights

Airport Ownership and Management from official FAA records

Ownership: Publicly-owned
Owner: CITY OF BANNING
P.O. BOX 998
BANNING, CA 92220
Phone (951) 922-3105
Manager: CARL SZOYKA
176 EAST LINCOLN STREET, PO BOX 998
BANNING, CA 92220-0998
Phone 951-922-3286

Airport Operational Statistics

Aircraft based on the field: 15
Single engine airplanes: 15
    
Aircraft operations: avg 69/week *
80% transient general aviation
20% local general aviation
* for 12-month period ending 31 March 2018

Additional Remarks

NO INTERSECTION TAKEOFFS TO THE WEST.
RY 08/26 NO STRAIGHT-IN LANDINGS.
RWY 26 AFTER TAKEOFF AVOID OVERFLYING HOUSES 4 MILES WEST.

Instrument Procedures

There are no published instrument procedures at KBNG.

Some nearby airports with instrument procedures:

KHMT - Hemet-Ryan Airport (14 nm SW)
KREI - Redlands Municipal Airport (18 nm NW)
KPSP - Palm Springs International Airport (18 nm E)
KRIV - March Air Reserve Base (20 nm W)
L35 - Big Bear City Airport (20 nm N)
 
Loc | Ops | Rwys | IFR | FBO | Links
Com | Nav | Svcs | Stats | Notes

San Bernardino International Airport Authority
 
Area around KBNG (Banning Municipal Airport)
 
Road maps at: MapQuest Bing Google
 
Aerial photo
WARNING: Photo may not be current or correct
Aerial photo of KBNG (Banning Municipal Airport)
Photo taken 30-Oct-2013
looking southwest.

Do you have a better or more recent aerial photo of Banning Municipal Airport that you would like to share? If so, please send us your photo.

 
Sectional chart

 
Airport distance calculator
Flying to Banning Municipal Airport? Find the distance to fly.

From to KBNG

Sunrise and sunset
Times for 15-Aug-2018
 Local
(UTC-7)
 Zulu
(UTC)
Morning civil twilight05:4412:44
Sunrise06:1013:10
Sunset19:3402:34
Evening civil twilight20:0003:00

Current date and time
Zulu (UTC)  15-Aug-2018 09:35:04
Local (UTC-7)  15-Aug-2018 02:35:04
 
METAR
KREI 
18nm NW 
SuperAWOS
150855Z AUTO 00000KT 10SM 20/12 A2993
KPSP 
19nm E 
150853Z AUTO 00000KT 10SM CLR 30/14 A2980 RMK AO2 SLP086 T03000139 51010
KL35 
20nm N 
150915Z AUTO 00000KT 10SM CLR 10/06 A3022 RMK AO2
KRIV 
21nm W 
150858Z AUTO 28003KT 10SM CLR 20/16 A2992 RMK AO2 SLP117 T02000156 50000
KSBD 
22nm NW 
150920Z AUTO 24003KT 10SM CLR 23/16 A2991 RMK AO2 T02250160
KF70 
25nm SW 
150915Z AUTO 00000KT 10SM CLR 19/17 A2993 RMK AO1
KRAL 
30nm W 
150853Z AUTO 28005KT 10SM CLR 21/17 A2990 RMK AO2 SLP109 T02060172 50001
TAF
KPSP 
19nm E 
150520Z 1506/1606 32011KT P6SM SKC FM150800 VRB05KT P6SM SCT150 FM151900 11010KT P6SM SCT150 FM160200 32010KT P6SM SCT150
KRIV 
21nm W 
1504/1610 15004KT 9999 SKC QNH2990INS BECMG 1518/1519 30009KT 9999 FEW110 QNH2990INS TEMPO 1521/1601 31012G20KT BECMG 1605/1606 28009KT 9999 FEW100 SCT140 QNH2994INS BECMG 1608/1609 VRB04KT 9999 FEW100 QNH2997INS TX33/1522Z TN17/1513Z
KSBD 
22nm NW 
150520Z 1506/1606 VRB05KT P6SM SKC FM152100 25009KT P6SM SCT080 FM160400 VRB05KT P6SM FEW100
NOTAMs
Click for the latest NOTAMs
NOTAMs are issued by the DoD/FAA and will open in a separate window not controlled by AirNav.

 

 
 

FBO, Fuel Providers, and Aircraft Ground Support

  
 Business Name 
 
 Contact 
 
 Services / Description 
 
Fuel Prices
 
Comments
  
City of Banning 951-922-3320
no information available

If you are affiliated with City of Banning and would like to show here your services, contact info, web link, logo, and more, click here
100LL
PS $4.67 
 Updated 09-Aug-2018
 
   1 read write
PS=Pump service
Update Fuel Prices
 

Would you like to see your business listed on this page?

 If your business provides an interesting product or service to pilots, flight crews, aircraft, or users of the Banning Municipal Airport, you should consider listing it here.  To start the listing process, click on the button below
 
Add a business
 

Other Pages about Banning Municipal Airport

www.ci.banning.ca.us/...
 
Update a link
 
Copyright © AirNav, LLC. All rights reserved. Privacy Policy  Contact